Weather Roundup
Issued by NWS

Home | Current Version | Previous Version | Text Only | Print | Product List | Glossary On
Versions: 1 2 3 4 5 6 7 8 9 10 11 12 13 14 15 16 17 18 19 20 21 22 23 24 25 26 27 28 29 30 31 32 33 34 35 36 37 38 39 40 41 42 43 44 45 46 47 48 49 50
000
NZUS93 KARX 292310
HRRWXR

CURRENT HOURLY OBSERVATIONS ACROSS
MUCH OF THE UPPER MISSISSIPPI VALLEY
NATIONAL WEATHER SERVICE LA CROSSE WI
600 PM CDT WED MAR 29 2017


...SOUTHEAST MINNESOTA...


CITY           SKY/WX    TMP DP  RH WIND       PRES   REMARKS
ROCHESTER      LGT RAIN  41  39  93 E17G33    30.14R
ROCHESTER/MAYO CLOUDY    42  39  91 E13G23    30.15R
WINONA         DRIZZLE   43  39  87 E9        30.17F
AUSTIN         RAIN      41  37  87 E15       30.11S
ALBERT LEA     LGT RAIN  39  39 100 E20       30.10F WCI  30
DODGE CENTER   LGT RAIN  39  39 100 E18G28    30.13S WCI  30
PRESTON        LGT RAIN  41  36  83 E14       30.13S
OWATONNA       LGT RAIN  43  37  81 E17       30.13S
FARIBAULT      LGT RAIN  43  39  87 E10G16    30.15S
$$

...ELSEWHERE IN MINNESOTA...


CITY           SKY/WX    TMP DP  RH WIND       PRES   REMARKS
MINNEAPOLIS    CLOUDY    47  37  68 SE7       30.17S
INTNL FALLS    CLOUDY    53  29  39 VRB7G18   30.12F
DULUTH         CLOUDY    35  29  78 E7        30.21F WCI  29
RED WING       CLOUDY    45  37  76 SE8       30.16S
REDWOOD FALLS  LGT RAIN  44  40  85 E14G20    30.12F
MANKATO        LGT RAIN  42  38  85 E16G22    30.13S
WORTHINGTON    LGT RAIN  39  36  89 E23       30.04F WCI  28
FAIRMONT       LGT RAIN  40  37  89 E23G30    30.07F WCI  30
$$

...SOUTHWEST WISCONSIN...


CITY           SKY/WX    TMP DP  RH WIND       PRES   REMARKS
LA CROSSE      LGT RAIN  47  38  71 NE9G17    30.15F
PRAIRIE DU CHI RAIN      41  40  97 NE13G23   30.12S
BOSCOBEL       RAIN      45  38  76 E9G24     30.14F
LONE ROCK      CLOUDY    47  34  60 E15       30.15S
PLATTEVILLE    CLOUDY    43  38  83 NE24G32   30.09S
FORT MC COY    CLOUDY    43  39  86 E9        30.18F
CAMP DOUGLAS   CLOUDY    43  39  87 NE7       30.18R
MAUSTON-NEW LI CLOUDY    45  37  76 E6        30.18S
VIROQUA        CLOUDY    43  38  82 E15       30.13F
WIS DELLS      CLOUDY    44  38  79 NE10      30.17R
$$

...ELSEWHERE IN WISCONSIN...


CITY           SKY/WX    TMP DP  RH WIND       PRES   REMARKS
MILWAUKEE      CLOUDY    38  34  85 N15G24    30.15F WCI  29
MADISON        CLOUDY    45  33  63 NE12      30.14R
GREEN BAY      CLOUDY    40  31  70 NE13      30.23F WCI  32
EAU CLAIRE     CLOUDY    49  33  54 E9        30.17F
BLACK RVR FLS  RAIN      42  42 100 E6        30.19F
MEDFORD        CLOUDY    43  30  59 E8        30.19S
WAUSAU         CLOUDY    43  29  57 E9        30.19F
WIS RAPIDS     LGT RAIN  43  34  70 E7        30.23R
MARSHFIELD     CLOUDY    43  31  62 SE8       30.19F
RICE LAKE      CLOUDY    47  32  55 CALM      30.19F
$$

...NORTHEAST IOWA...


CITY           SKY/WX    TMP DP  RH WIND       PRES   REMARKS
WATERLOO       LGT RAIN  42  38  85 NE21G31   30.02R FOG
DUBUQUE        LGT RAIN  42  37  82 NE14G24   30.06R
DECORAH        LGT RAIN  41  39  93 E14G24    30.09F
MASON CITY     RAIN      39  36  89 E23G38    30.07F FOG     WCI  28
CHARLES CITY   LGT RAIN  39  39 100 E22G35    30.08R WCI  29
OELWEIN        CLOUDY    41  39  93 NE23G32   30.01S
$$

...ELSEWHERE IN IOWA...


CITY           SKY/WX    TMP DP  RH WIND       PRES   REMARKS
DES MOINES     LGT RAIN  45  43  93 E13G24    29.89S FOG
IOWA CITY      LGT RAIN  46  41  82 E18G29    29.97R
FORT DODGE     CLOUDY    39  36  87 NE24G33   30.00R WCI  28
MARSHALLTOWN   LGT RAIN  42  40  92 E24G37    29.94R FOG
CEDAR RAPIDS   LGT RAIN  43  41  93 E24G37    29.94F FOG
$$

...NORTHERN ILLINOIS...


CITY           SKY/WX    TMP DP  RH WIND       PRES   REMARKS
CHICAGO-OHARE  CLOUDY    47  34  60 NE18      30.06F
CHICAGO-MIDWAY CLOUDY    48  35  60 E20       30.05F
MOLINE         LGT RAIN  46  41  82 NE18      29.96F
ROCKFORD       LGT RAIN  45  37  73 E14       30.08F
PEORIA         CLOUDY    50  43  77 E18G25    29.93F
$$

NOTE: "FAIR" INDICATES FEW OR NO CLOUDS BELOW 12,000 FEET WITH NO
SIGNIFICANT WEATHER AND/OR OBSTRUCTIONS TO VISIBILITY. WIND
SPEEDS ARE IN MILES-PER-HOUR.




USA.gov is the U.S. government's official web portal to all federal, state and local government web resources and services.